Theta_e
343 343 342 337 339 338 336 341 346 348 347 344 345 344 339 337 336 331 326 320 319 316
340 338 340 339 339 339 339 342 346 346 344 343 341 339 336 335 331 327 323 320 319 315
336 336 338 338 337 339 339 340 344 343 343 341 338 336 333 330 328 324 323 320 316 313
336 334 338 337 335 337 338 342 343 340 338 337 334 333 329 328 326 323 319 316 314 313
334 334 334 336 332 335 337 342 340 337 335 333 332 330 327 326 325 321 317 316 313 316
329 331 334 334 333 334 331 340 339 336 332 331 330 327 326 324 322 318 317 314 313 314
326 330 333 335 335 334 335 338 336 334 332 331 329 327 324 322 319 318 316 316 316 316
322 323 332 334 334 335 337 338 335 331 329 328 327 325 322 320 318 316 314 312 312 309
322 324 329 331 334 334 335 334 332 329 326 325 326 312 313 317 316 315 310 306 306 306
321 324 327 331 332 332 332 332 330 327 326 324 322 308 308 311 316 310 306 304 303 305
317 316 322 328 331 330 330 329 326 325 325 323 314 305 306 310 314 308 305 305 304 303
314 313 319 326 327 330 328 327 325 324 321 316 310 304 306 312 312 309 307 309 307 307
316 315 320 327 327 330 328 326 325 322 320 312 312 301 305 311 313 309 309 305 309 304
325 326 326 328 328 328 326 323 322 317 315 314 312 307 304 306 312 308 304 303 302 298
Wind_Speed
11 9 10 7 9 9 9 11 12 10 11 9 10 10 8 5 5 5 5 7 6 5
10 11 10 10 12 11 12 10 14 12 11 11 11 11 9 6 7 6 4 6 7 6
9 9 10 14 18 18 18 15 11 11 13 12 11 12 10 7 6 7 4 4 7 6
9 8 11 13 17 14 12 19 15 11 11 12 12 12 10 9 9 8 7 6 7 7
8 6 11 15 15 13 12 15 13 12 11 11 11 10 13 12 10 10 9 7 7 8
6 7 12 15 16 14 12 13 14 16 15 14 13 11 12 12 10 9 9 8 7 8
6 8 12 17 21 13 13 13 14 12 12 11 13 14 14 13 11 10 9 7 7 7
5 4 6 15 19 19 13 16 14 14 11 11 10 10 13 14 12 11 9 9 9 7
3 4 8 11 19 17 16 14 14 13 13 13 9 13 14 14 12 11 13 11 9 7
5 1 2 9 14 16 16 16 16 15 15 13 8 14 16 16 11 11 11 11 10 9
5 5 4 9 13 15 14 15 14 12 12 15 8 21 18 17 12 11 9 11 8 11
8 9 7 9 13 10 13 13 14 14 14 11 10 21 20 16 12 12 9 10 10 10
11 12 9 8 14 13 14 14 13 14 14 15 13 7 20 16 10 11 9 7 11 13
13 15 17 20 13 13 13 13 13 13 13 16 17 13 17 17 11 10 9 8 8 6
Wind_Direction
214 222 217 190 170 182 171 215 214 182 168 157 150 151 137 144 138 133 143 125 112 119
203 209 201 184 164 163 177 215 211 180 159 154 154 147 143 147 146 131 139 118 116 113
205 207 194 169 167 175 158 206 205 179 165 156 152 145 139 140 131 132 125 109 112 107
223 195 181 172 173 172 185 190 181 173 169 157 152 152 139 134 139 128 124 109 119 106
230 179 181 169 170 180 195 159 166 166 166 157 150 150 140 147 142 142 133 130 121 117
265 183 186 167 172 189 191 168 171 169 164 162 159 150 142 140 133 137 136 136 135 130
259 220 201 172 175 193 193 165 166 169 156 167 162 155 144 138 139 143 131 134 131 127
317 299 228 185 179 174 200 163 169 144 153 156 157 151 149 140 150 138 117 107 101 96
118 296 248 188 179 172 185 159 147 144 148 144 149 153 136 146 142 133 123 117 111 107
279 99 265 204 165 161 165 156 159 150 146 142 135 152 135 130 132 123 125 128 130 121
219 258 211 224 194 159 152 157 149 150 158 142 145 140 133 120 121 121 130 139 129 127
190 241 197 225 218 166 160 156 155 152 139 132 140 137 134 129 131 135 142 142 132 141
207 234 237 214 201 169 168 165 155 147 142 135 143 135 137 137 142 134 128 115 140 134
247 219 205 205 190 164 162 154 151 135 140 139 149 160 144 140 147 141 134 133 131 139